Content
SEND FEEDBACK

Daily
Averages
Monthly
Summary
United States of America

KEY BISCAYNE, FLORIDA


Home > North America > United States > Florida
Elevation: 0 feet     Latitude: 25 47N     Longitude: 080 08W

WEATHER
 
SELECT A DAY
Number of Records: 188,839;   Date Range: 1/1/95 - 12/16/14
 
SHARE

PRINT THIS DATA

[ ← Previous Day ]
WEATHER ALMANAC - JANUARY 14, 2013
[ Next Day → ]
[ °C ]   °F
Weather ElementAverageHighLow
Temperature74.7 °F79 °F (10:53 am)71.1 °F (4:53 am)
Dewpoint62.2 °F64 °F (6:53 pm)60.1 °F (3:53 am)
Humidity65.4 %78 % (11:53 pm)54 % (12:53 pm)
Barometer30.16 in30.18 in (9:53 am)30.13 in (4:53 am)
Wind Speed9.1 mph13.8 mph (8:53 am)
Wind Gust23 mph (11:53 am)
Weather ElementAverage
Visibility10 mi
Wind DirectionESE (109.6 °)

Weather ElementTotal
Precipitation---
Cooling Degree Days10.1 (Base 65)
Growing Degree Days25.1 (Base 50)
Averaged from 23 records on January 14, 2013
WEATHER CONDITIONS BREAKOUT
WIND DIRECTION BREAKOUT
WEATHER BY HOUR - JANUARY 14, 2013
[ °C ]   °F
Local TimeTemperatureDewpointHumidityBarometerVisibilityWind DirectionWind SpeedGust SpeedPrecipitationEventsConditions
1:53 AM73.0 °F62.1 °F68 %30.14 in10.0 miESE (110°)8.1 mphMostly Cloudy
2:53 AM73.9 °F62.1 °F66 %30.14 in10.0 miESE (110°)6.9 mphMostly Cloudy
3:53 AM73.0 °F60.1 °F64 %30.14 in10.0 miESE (110°)4.6 mphMostly Cloudy
4:53 AM71.1 °F61.0 °F70 %30.13 in10.0 miEast (100°)5.8 mphMostly Cloudy
5:53 AM71.1 °F61.0 °F70 %30.14 in10.0 miEast (100°)5.8 mphMostly Cloudy
6:53 AM72.0 °F62.1 °F71 %30.16 in10.0 miESE (110°)9.2 mphMostly Cloudy
7:53 AM73.0 °F61.0 °F66 %30.17 in10.0 miEast (90°)8.1 mphMostly Cloudy
8:53 AM75.9 °F60.1 °F58 %30.17 in10.0 miESE (110°)13.8 mphMostly Cloudy
9:53 AM77.0 °F61.0 °F58 %30.18 in10.0 miESE (110°)13.8 mphMostly Cloudy
10:53 AM79.0 °F62.1 °F56 %30.17 in10.0 miESE (120°)13.8 mphMostly Cloudy
11:53 AM78.1 °F61.0 °F56 %30.16 in10.0 miSE (130°)12.7 mph23.0 mphMostly Cloudy
12:53 PM79.0 °F61.0 °F54 %30.15 in10.0 miSSE (150°)11.5 mphMostly Cloudy
1:53 PM78.8 °F62.6 °F57 %30.13 in10.0 miEast (100°)13.8 mphMostly Cloudy
2:53 PM79.0 °F62.1 °F56 %30.14 in10.0 miSE (140°)10.4 mph20.7 mphMostly Cloudy
3:53 PM77.0 °F62.1 °F60 %30.14 in10.0 miESE (120°)12.7 mphMostly Cloudy
4:53 PM75.2 °F62.6 °F65 %30.15 in10.0 miESE (120°)10.4 mphMostly Cloudy
5:53 PM75.0 °F63.0 °F66 %30.17 in10.0 miESE (110°)10.4 mphScattered Clouds
6:53 PM73.9 °F64.0 °F71 %30.17 in10.0 miESE (110°)8.1 mphScattered Clouds
7:53 PM73.0 °F64.0 °F73 %30.18 in10.0 miEast (100°)4.6 mphScattered Clouds
8:53 PM73.0 °F64.0 °F73 %30.17 in10.0 miEast (90°)5.8 mphScattered Clouds
9:53 PM72.0 °F64.0 °F76 %30.17 in10.0 miEast (90°)6.9 mphPartly Cloudy
10:53 PM73.0 °F64.0 °F73 %30.16 in10.0 miEast (100°)6.9 mphPartly Cloudy
11:53 PM71.1 °F64.0 °F78 %30.15 in10.0 miEast (90°)5.8 mphPartly Cloudy
Hourly data recorded from KMIA, located miles away from Key Biscayne, Florida







STORIES FROM OUR PARTNERS